GFSWCAN_925_spd_096.txt.gz
Wind_Speed
15 12 12 11 10 10 9 10 13 10 10 9 9 8 13 16 9 5 4 3 3 2 3 8 7 5 2 2 3 2 2 2 2 3 2 2 3 3 2 4 3 3 3 4 2 2 7 6 3 6 5 1 3 4
17 14 10 13 11 12 11 10 11 10 10 9 9 8 9 13 13 4 2 3 1 1 2 6 11 10 5 3 4 1 2 2 4 3 1 2 3 1 3 4 1 3 6 4 8 6 4 7 6 4 3 4 4 4
19 18 13 11 14 12 12 11 12 10 9 11 7 8 8 9 10 6 5 3 1 2 3 1 6 6 13 9 5 2 2 2 2 2 3 2 5 4 4 5 3 4 3 4 1 4 8 10 6 6 6 6 4 3
20 21 17 14 15 13 13 12 10 12 9 9 9 7 8 9 9 9 3 3 1 2 1 4 1 3 4 11 8 4 1 3 4 2 1 2 2 3 3 3 4 4 6 4 7 9 7 10 9 6 7 6 5 3
20 22 21 17 15 15 14 13 11 10 10 8 8 10 10 9 9 9 9 3 3 2 3 4 3 3 4 9 6 5 3 2 1 1 2 4 2 2 2 1 4 6 7 5 6 6 3 6 5 6 9 9 9 7
24 22 23 21 18 17 16 15 12 11 9 8 8 9 13 10 8 5 3 2 2 2 2 3 1 2 4 5 5 3 3 1 2 3 3 3 2 2 2 4 8 7 4 5 4 1 4 5 5 1 4 5 5 6
24 25 25 23 20 19 18 17 15 12 8 8 8 6 7 9 7 4 3 1 4 2 2 4 3 1 3 3 2 2 3 2 2 2 3 1 2 3 3 5 6 8 8 7 7 3 5 4 4 5 4 6 10 7
23 24 26 26 23 21 21 18 16 13 8 7 7 6 6 9 9 8 11 9 3 1 3 2 4 2 6 3 2 1 2 1 2 2 1 2 0 0 5 10 5 6 7 7 8 9 3 1 4 5 4 5 5 5
27 25 24 26 26 23 23 20 17 13 8 6 5 5 5 5 4 2 3 4 7 3 2 3 3 4 2 1 2 1 1 1 1 3 3 3 3 6 9 7 7 7 5 4 0 5 6 6 6 6 6 6 7 7
25 27 26 26 27 25 24 23 18 13 8 7 5 2 3 4 4 3 1 2 3 2 1 3 1 2 3 0 1 3 0 2 2 3 3 3 5 12 12 10 7 6 7 5 4 4 5 5 8 8 10 7 6 6
25 25 26 27 26 26 26 24 21 15 13 7 5 3 2 3 3 2 1 2 0 3 3 2 4 3 2 3 3 2 3 1 1 3 3 3 4 5 5 4 4 6 7 9 9 5 7 6 8 8 6 7 9 10
23 25 25 23 26 26 28 27 25 23 13 12 8 4 3 1 2 2 3 1 4 5 1 3 3 3 1 1 2 2 2 2 5 1 0 4 5 6 3 5 6 6 6 8 9 8 7 7 7 7 6 7 10 12
21 23 26 24 25 27 32 31 31 27 17 8 2 3 3 1 1 7 8 4 3 5 4 3 1 1 1 1 2 2 2 5 2 1 4 5 4 4 5 4 6 4 3 3 5 3 2 2 3 7 7 11 16 16
21 21 23 24 23 27 36 35 36 29 11 3 5 6 7 5 7 7 4 4 4 4 6 4 3 3 1 2 2 2 2 2 2 3 6 3 5 3 3 2 2 2 3 3 3 4 5 5 6 10 16 16 16 13
21 22 22 24 23 25 39 37 37 28 8 4 5 7 9 4 2 1 1 1 2 5 6 4 3 2 2 2 1 2 3 4 6 5 3 3 4 2 2 1 4 5 4 4 3 3 5 11 11 10 14 17 15 13
20 24 26 23 22 26 41 40 29 18 5 3 4 2 1 2 3 2 2 2 3 5 2 3 4 3 4 5 4 8 4 6 4 4 3 2 2 2 3 3 4 4 4 5 8 9 10 12 12 12 14 15 16 15
17 11 13 14 17 21 43 20 7 6 6 5 5 3 3 1 3 3 5 4 7 4 3 3 6 8 3 1 4 6 6 4 4 4 3 4 4 3 4 3 3 4 5 9 10 12 14 14 14 15 8 18 17 17
22 22 16 15 14 20 7 5 5 6 8 6 4 5 3 3 4 2 3 4 5 3 4 5 4 3 6 6 4 4 5 3 4 4 3 4 4 4 4 5 6 9 11 14 17 16 16 17 13 12 19 20 18 16
24 19 17 17 17 9 4 5 5 5 8 2 3 2 2 2 2 4 5 7 1 1 5 2 4 5 5 4 4 4 3 4 3 4 4 6 11 8 9 10 10 10 13 13 15 14 17 24 21 20 22 23 16 21
24 24 22 19 22 6 5 3 6 3 4 3 2 4 3 3 4 4 7 8 4 2 4 4 6 4 4 3 5 3 3 4 3 3 4 4 9 12 11 12 10 16 14 14 18 16 17 16 24 25 25 24 19 19
24 25 22 18 9 6 2 3 4 3 3 3 4 6 3 1 1 4 5 6 4 4 5 6 5 9 6 4 9 7 5 6 6 6 5 4 5 12 12 17 19 15 8 7 6 10 18 17 19 25 25 23 28 26
18 21 9 13 4 5 3 6 2 3 3 1 5 4 3 4 4 4 5 4 5 12 6 6 10 11 10 14 12 16 17 17 19 11 10 8 5 4 5 10 7 6 9 13 13 11 17 19 20 24 27 26 22 21
14 10 6 5 5 6 4 7 4 5 4 5 4 5 3 3 3 7 5 5 7 4 9 12 13 16 15 26 14 13 25 19 10 9 10 12 15 18 15 17 17 9 7 13 20 20 17 19 21 23 25 20 23 22
11 6 7 7 7 6 3 4 1 3 3 3 5 4 3 4 4 3 5 6 6 2 6 12 10 12 13 16 14 16 19 19 14 16 20 11 8 10 18 19 19 23 21 18 17 19 21 21 20 21 23 23 22 20
4 7 6 5 4 3 6 5 4 3 5 4 4 4 3 4 5 5 5 3 4 6 8 10 13 15 15 13 10 9 23 21 9 10 19 18 16 13 9 17 21 24 18 17 15 18 18 19 19 21 23 24 22 21
8 9 9 9 5 6 7 7 8 7 3 4 7 1 2 4 4 8 4 5 11 9 11 13 13 11 11 12 12 10 14 22 20 8 15 22 20 9 7 6 4 7 19 24 18 16 17 19 21 23 22 23 23 21
6 8 4 2 4 4 2 2 2 4 7 8 4 5 4 5 7 6 3 5 10 9 19 19 14 11 12 9 17 22 13 18 21 16 15 12 19 23 21 8 6 12 8 16 23 24 23 22 22 23 19 20 23 25
4 5 8 7 3 1 5 3 5 8 5 4 7 7 9 10 8 4 6 4 9 8 9 17 23 22 18 19 18 15 16 19 21 12 9 14 17 18 20 22 21 14 9 9 17 22 24 26 25 24 24 24 23 24
4 4 5 5 3 4 7 9 7 5 3 6 7 5 6 4 3 3 3 4 5 4 1 3 7 12 12 9 11 19 17 25 9 6 7 6 3 10 15 21 21 17 13 12 13 17 22 24 25 27 27 25 25 23
7 6 5 5 7 9 6 7 3 3 3 4 3 3 3 3 5 14 13 8 2 5 8 6 9 14 6 6 4 11 20 25 25 10 6 7 7 6 5 9 14 16 16 16 18 15 15 18 19 21 23 21 21 21
7 6 3 5 6 4 3 2 2 1 0 3 2 4 13 4 4 13 22 26 21 14 6 3 6 14 8 6 6 5 6 29 33 33 25 13 8 9 8 9 13 17 18 20 23 24 24 25 25 25 25 22 22 22
4 10 6 5 4 3 1 3 2 2 2 2 4 1 3 1 5 4 17 20 10 5 13 14 5 7 30 30 28 30 17 13 14 18 24 26 21 14 11 14 18 20 22 24 26 26 28 26 23 23 23 23 25 23
3 3 1 2 0 1 2 3 2 4 3 4 5 5 5 8 17 6 9 26 28 23 19 26 33 31 30 33 36 32 24 21 17 13 12 14 19 21 21 22 23 24 25 27 27 29 28 26 25 24 24 25 24 21

GFSWCAN_925_spd_099.txt.gz
Wind_Speed
13 13 14 12 12 12 10 11 12 15 10 8 5 5 9 14 17 8 4 5 2 0 3 6 4 4 2 3 3 2 3 2 2 1 2 2 3 3 1 4 4 6 5 4 2 2 7 6 4 6 5 2 5 6
17 12 14 14 11 12 13 11 11 14 12 8 7 5 5 10 13 11 3 5 3 3 4 5 10 8 4 5 5 2 4 1 2 3 0 1 3 0 3 4 1 3 6 4 8 6 4 7 6 5 4 5 5 5
17 16 14 15 15 10 13 13 11 13 13 8 7 5 6 6 10 12 6 6 3 2 4 1 5 5 13 13 7 2 1 2 2 3 3 2 5 4 4 5 2 5 3 4 1 4 7 10 6 6 6 5 2 2
18 18 16 16 16 16 12 11 12 13 14 11 7 4 5 8 7 8 7 7 3 1 1 5 2 3 4 11 8 5 5 3 5 2 2 2 2 2 3 4 4 5 6 5 6 9 8 9 8 8 7 7 5 4
18 20 18 17 17 16 15 13 11 12 14 13 9 6 5 5 8 9 9 6 3 1 3 4 5 3 4 9 9 8 7 3 1 2 2 4 2 1 2 2 5 7 7 6 7 9 5 7 3 3 6 7 8 7
19 18 20 19 18 17 16 15 14 12 11 13 11 9 8 6 4 2 3 1 1 1 2 4 1 1 2 6 7 6 6 2 2 3 3 3 3 3 2 4 8 7 5 6 5 3 5 6 6 4 3 6 6 7
19 21 20 19 18 18 17 17 15 13 12 11 10 9 7 5 3 3 3 2 1 2 2 4 4 2 2 3 2 2 1 1 2 2 3 2 3 4 3 5 4 8 10 7 7 2 6 5 6 3 4 3 8 6
20 20 22 20 18 18 18 18 17 15 13 11 9 7 8 7 7 7 10 12 6 2 4 2 4 2 3 2 1 1 1 1 2 2 1 3 1 2 6 10 4 4 3 6 8 8 6 3 1 3 3 5 5 5
20 19 21 23 23 19 19 21 19 16 13 9 7 7 5 5 4 3 5 5 8 3 3 3 3 4 1 1 2 1 1 1 1 2 3 2 2 7 11 9 7 7 7 3 3 4 5 7 7 6 5 5 5 6
22 22 20 18 19 19 18 22 21 17 13 8 5 3 3 4 5 4 2 1 2 1 1 4 1 2 3 1 2 3 1 1 1 2 1 3 5 9 15 9 7 5 6 3 1 5 4 6 7 6 7 4 6 6
20 23 22 20 18 19 16 20 24 19 14 7 5 3 2 5 3 2 1 2 1 3 4 3 5 3 3 3 3 2 2 1 1 3 2 3 4 5 6 4 4 4 6 7 6 5 3 5 5 6 7 8 9 11
20 22 21 20 18 18 16 17 29 25 15 13 5 3 3 1 2 2 3 2 4 5 3 3 4 2 1 2 3 3 3 2 5 1 1 4 5 6 5 4 3 3 5 6 5 8 8 6 7 6 6 6 11 14
21 22 22 20 17 18 17 18 36 31 19 10 3 1 2 1 0 7 9 4 3 4 4 4 2 3 1 2 2 2 4 6 3 1 4 5 4 5 4 4 5 3 2 4 4 4 7 4 5 7 6 10 14 13
22 22 22 20 19 16 16 17 42 30 8 3 5 6 6 5 6 6 5 4 3 3 6 4 3 2 2 1 2 3 3 3 1 3 7 3 5 4 4 3 3 2 2 3 0 2 2 2 4 5 9 13 17 15
22 21 22 20 19 18 18 15 46 32 7 4 5 7 9 5 2 1 1 2 2 4 5 3 3 2 1 2 3 3 1 5 7 5 4 4 6 5 3 3 5 5 4 4 4 4 5 6 6 7 11 15 17 17
20 21 23 20 21 19 18 17 36 7 8 4 5 3 2 1 3 2 3 2 3 5 2 2 3 2 5 4 4 8 5 7 4 4 3 2 4 5 5 5 5 5 5 5 7 7 8 10 11 12 13 17 20 21
18 11 14 13 13 15 15 11 7 6 5 5 6 3 3 1 3 4 5 4 9 5 4 3 6 9 2 0 4 5 6 3 4 3 2 5 6 6 6 5 5 6 6 9 10 14 16 15 14 13 8 20 22 23
24 24 16 15 14 14 6 6 4 6 8 6 4 5 3 3 3 3 4 5 5 3 4 5 4 4 6 6 4 4 5 3 3 3 3 5 6 6 5 7 8 11 10 12 14 13 14 14 10 11 16 21 22 20
25 23 22 18 17 9 5 4 4 4 7 2 3 3 2 1 2 3 6 10 2 2 4 2 4 5 5 5 5 3 2 3 3 3 4 6 9 7 9 12 11 10 12 11 12 12 15 22 20 17 20 21 16 19
27 26 25 23 17 7 3 2 4 3 4 4 2 4 3 3 4 5 7 8 6 3 4 5 7 4 4 3 4 3 3 4 3 2 4 4 10 13 12 13 10 17 16 15 17 16 17 15 20 23 23 22 17 17
26 28 24 22 10 11 4 3 3 3 2 4 1 5 2 2 2 5 7 8 5 4 5 9 9 9 6 4 8 6 6 6 6 6 5 3 3 11 11 16 20 16 7 5 6 10 19 14 17 21 22 21 23 23
18 19 12 13 6 5 3 6 2 1 3 1 2 1 2 3 3 4 5 6 4 10 9 11 12 9 11 16 16 21 20 17 18 11 13 8 5 3 5 10 7 6 7 11 13 10 16 21 22 22 22 21 20 25
18 15 6 8 6 7 6 10 5 6 5 4 2 4 3 3 3 6 5 5 8 11 12 14 14 14 13 25 22 22 25 20 12 12 10 12 17 18 18 17 17 8 7 14 20 18 18 21 19 19 21 17 21 20
16 8 6 5 9 6 5 6 2 3 3 4 4 4 4 3 4 3 4 5 12 7 11 16 11 11 13 17 14 17 19 19 15 19 20 9 7 12 19 20 18 22 23 21 15 18 19 19 16 17 18 19 19 19
6 7 6 6 3 4 5 4 3 3 5 5 5 5 3 3 4 4 4 5 9 9 11 11 12 14 16 15 12 11 20 21 11 12 16 21 19 14 11 17 19 22 20 19 14 16 15 16 18 19 20 20 20 20
10 10 8 10 4 6 7 7 8 8 4 4 7 2 2 3 4 7 5 7 10 10 10 12 14 13 13 13 13 11 16 21 20 8 18 19 21 12 9 5 4 7 19 24 17 16 16 18 18 20 18 20 21 20
7 8 4 2 3 2 2 2 2 3 7 8 5 6 4 5 8 6 3 4 6 5 15 20 15 11 12 11 18 24 22 16 18 14 21 18 24 28 20 8 7 11 9 13 18 21 19 19 19 19 17 19 22 25
5 5 9 8 4 3 5 4 6 9 6 4 6 5 8 9 8 4 5 5 5 11 13 14 20 21 19 18 17 16 16 18 19 17 12 14 15 16 19 23 21 12 9 9 11 15 18 20 21 21 22 21 24 27
4 3 4 5 3 4 7 8 7 4 3 5 7 5 6 4 3 3 4 8 10 9 2 3 8 14 15 15 13 16 17 20 9 7 8 7 2 10 19 24 23 20 17 12 10 12 15 17 18 21 23 24 26 25
6 5 4 5 7 8 6 7 4 3 3 4 3 3 3 5 6 16 17 17 5 7 11 14 10 13 4 5 3 9 20 24 23 12 7 8 8 9 11 15 17 20 19 16 16 12 12 13 15 18 21 22 24 25
6 7 1 2 5 4 4 2 1 2 0 3 2 4 11 7 6 22 27 28 23 20 9 8 8 14 7 6 7 6 7 28 33 34 27 15 6 10 12 11 12 16 20 21 22 21 22 23 24 23 24 24 25 25
6 11 7 6 5 3 2 2 3 3 3 3 5 2 3 2 6 11 27 23 14 10 18 19 10 11 28 30 26 27 26 20 30 39 37 32 25 16 14 14 16 19 23 24 25 26 28 27 22 20 22 26 26 26
3 3 2 2 1 2 3 3 2 3 1 3 5 8 9 6 9 6 10 18 24 22 21 25 30 33 29 31 32 34 34 31 16 18 25 26 25 24 23 21 22 24 25 26 25 27 27 26 24 24 24 26 25 24

GFSWCAN_925_spd_102.txt.gz
Wind_Speed
11 11 12 13 10 10 10 11 12 12 14 11 7 6 8 10 13 7 2 5 2 1 3 5 5 4 3 3 2 2 2 1 1 3 3 2 3 1 3 3 4 6 5 5 4 6 7 8 6 6 2 1 2 6
13 12 12 13 12 11 10 11 12 13 13 14 8 5 7 7 9 8 1 3 1 3 3 5 9 10 5 3 3 3 1 1 1 0 1 1 3 3 3 4 2 4 5 2 7 5 2 12 4 7 0 1 4 6
19 14 13 12 12 13 12 11 12 11 13 16 12 7 5 7 7 6 2 1 1 1 3 2 3 5 14 12 7 3 2 2 3 0 1 1 6 2 4 6 3 6 6 5 3 4 11 14 15 11 8 9 6 6
17 13 13 13 12 13 13 13 12 12 11 14 15 10 7 8 7 7 5 4 2 2 2 2 2 2 4 7 10 7 1 4 4 1 2 3 3 5 3 4 6 6 8 7 10 18 16 15 12 13 11 9 10 7
16 13 14 13 13 12 14 14 14 12 11 11 16 13 10 10 11 10 12 9 7 3 2 3 2 2 4 8 8 6 3 2 2 2 3 4 2 2 3 3 9 9 10 8 7 6 9 5 2 1 5 6 8 12
14 13 12 14 14 13 13 16 16 13 12 11 11 13 11 10 9 7 2 3 5 4 1 3 0 3 3 7 8 5 5 2 1 2 3 3 1 2 4 5 8 12 11 15 9 2 5 5 5 4 6 6 5 9
14 15 13 15 15 13 12 14 18 16 14 12 11 11 9 9 7 4 3 4 1 2 1 4 3 3 6 5 3 2 3 2 2 2 3 3 3 4 4 7 3 8 12 12 10 3 7 7 5 4 2 3 3 4
13 14 14 13 14 15 14 12 16 18 15 13 10 8 8 8 11 9 12 14 5 3 1 3 3 2 6 3 3 2 3 2 3 2 2 3 3 4 7 15 8 4 4 8 10 10 10 3 6 5 1 2 4 6
12 13 13 13 13 15 17 15 13 18 16 12 8 6 5 5 3 2 2 5 10 4 2 3 2 2 2 1 2 3 2 3 1 3 3 4 5 8 13 12 11 8 6 2 3 4 4 7 9 7 6 7 8 8
14 14 13 12 13 14 14 13 11 18 16 10 5 2 2 3 4 3 0 0 0 2 2 4 1 2 3 2 2 3 2 2 3 3 2 5 7 14 16 15 12 12 11 9 5 6 5 6 8 8 11 10 9 9
15 15 15 13 11 12 13 12 11 17 15 7 5 2 2 4 3 1 2 2 2 3 4 3 6 4 4 3 3 3 3 2 3 1 3 3 5 6 4 7 7 10 14 13 11 10 8 7 6 6 8 10 10 11
16 16 16 16 13 10 11 11 11 25 14 14 8 3 3 1 0 2 3 1 5 5 3 3 3 2 2 2 2 3 3 3 5 2 2 4 5 6 5 5 5 4 5 7 9 10 9 10 10 6 5 7 12 12
17 18 17 16 15 11 10 11 14 25 20 12 3 2 2 2 4 7 9 4 4 4 5 4 2 2 1 2 0 2 5 5 3 3 5 6 3 3 4 3 5 3 3 3 4 6 7 8 7 6 5 8 11 12
18 18 18 18 17 14 12 11 12 28 7 4 4 6 6 6 6 7 6 2 2 2 6 4 3 2 1 3 2 4 2 2 3 4 7 3 4 5 2 2 2 3 5 4 4 3 3 4 5 8 10 9 11 13
18 19 19 19 18 18 16 14 18 24 6 4 4 6 10 6 3 2 1 1 2 4 4 3 2 2 2 2 3 1 2 5 5 5 3 3 2 3 2 2 5 5 6 6 5 5 6 9 7 7 11 13 17 15
18 20 19 18 17 15 15 15 20 14 6 5 5 5 2 1 3 3 3 2 3 5 1 0 2 3 6 3 4 9 4 7 4 3 3 3 2 4 4 4 5 4 5 5 5 6 8 9 8 8 9 14 18 18
16 10 8 12 13 14 13 8 7 6 6 5 6 5 4 3 4 3 6 5 10 5 3 2 4 8 2 3 5 6 6 4 3 3 2 4 5 6 5 4 4 5 5 8 8 9 9 9 8 8 7 12 16 18
19 16 14 14 12 14 4 9 5 3 5 5 4 7 5 4 4 3 4 8 6 5 5 5 2 4 5 5 4 4 5 3 4 4 3 4 6 6 5 6 7 10 9 10 14 13 12 11 7 9 14 13 14 18
23 19 18 17 12 7 4 5 5 4 7 3 3 1 3 2 3 1 6 11 1 3 6 4 4 5 7 5 4 3 3 4 4 3 2 4 8 7 10 13 12 11 12 12 12 13 15 20 17 14 14 14 13 14
23 22 23 22 15 6 4 3 7 4 5 5 3 4 3 3 3 4 6 8 6 4 4 5 7 8 5 6 6 6 4 4 3 3 4 4 5 9 12 13 11 16 12 13 16 16 14 14 16 20 19 18 13 15
21 25 23 22 12 13 4 3 3 3 2 4 2 4 3 3 3 4 5 7 6 3 4 8 13 13 12 9 11 7 7 5 7 8 12 10 8 12 14 17 19 15 9 8 8 10 17 15 18 18 19 20 21 19
13 14 9 9 7 6 4 8 3 3 2 2 3 3 3 3 3 4 4 5 3 7 6 12 14 13 12 17 17 27 27 21 20 17 18 18 10 6 5 10 7 8 8 13 16 10 19 19 20 20 18 19 17 18
14 11 6 7 7 7 6 11 6 5 5 4 5 3 3 3 4 4 4 5 6 10 14 15 20 26 17 28 24 24 23 20 12 13 12 12 18 20 19 22 23 11 10 16 19 21 18 16 17 17 17 14 15 14
12 5 6 5 8 5 5 6 4 4 3 4 4 5 4 4 4 3 5 4 9 10 10 18 15 15 15 17 14 15 22 22 17 21 26 16 12 12 22 22 23 22 23 21 18 17 16 17 14 14 15 13 14 14
5 6 5 10 5 6 6 5 5 4 5 6 7 6 3 4 4 5 4 4 9 12 11 12 11 12 13 15 13 13 24 21 12 15 21 20 19 17 16 20 20 22 21 18 16 14 14 16 15 14 14 14 14 14
9 9 8 6 4 6 6 6 10 9 4 6 8 2 3 4 5 6 4 8 11 9 9 9 9 10 11 13 14 12 17 20 19 11 18 19 19 13 11 9 8 8 22 28 18 15 14 15 14 15 14 16 16 15
6 7 3 2 4 3 3 1 1 3 7 8 4 6 5 5 7 6 3 3 5 3 11 15 11 8 10 9 17 23 22 21 21 18 21 20 25 26 23 11 10 13 13 16 20 20 16 15 14 16 14 14 18 20
5 5 8 5 4 2 4 3 7 9 5 4 6 7 7 8 7 4 6 5 8 9 14 14 15 20 19 21 22 19 17 16 18 19 20 19 20 21 25 27 26 17 12 12 14 15 16 16 17 17 17 17 17 23
6 4 3 6 3 4 6 8 7 4 4 6 6 5 6 4 3 3 5 11 13 12 5 9 16 20 24 24 25 26 20 11 4 6 10 8 4 10 22 27 22 22 19 15 13 12 12 13 15 17 18 19 20 23
6 6 8 6 5 7 6 7 4 4 4 4 2 2 3 4 9 21 20 19 8 10 18 21 25 14 9 7 8 13 22 20 20 14 9 10 8 9 10 18 24 24 21 19 16 12 11 12 12 13 16 18 19 19
2 7 4 6 9 11 8 1 1 2 1 3 2 4 11 5 5 18 25 29 26 24 19 14 13 20 11 10 11 9 10 23 31 33 33 27 19 10 14 15 15 18 23 22 21 19 19 17 18 17 17 17 20 20
7 10 8 6 7 2 1 3 3 5 4 4 7 4 3 1 7 10 31 24 16 11 18 22 14 17 30 29 29 30 29 26 24 27 30 32 32 26 17 14 15 17 21 23 23 22 24 20 17 16 17 19 21 24
4 3 1 1 1 4 4 3 3 4 3 4 5 7 9 9 14 11 6 14 24 23 24 28 31 33 30 30 30 30 29 32 32 29 25 24 25 29 26 20 18 19 21 23 22 23 23 21 20 21 21 22 24 26

GFSWCAN_925_spd_105.txt.gz
Wind_Speed
10 9 9 10 12 11 12 11 10 10 10 12 14 12 11 12 13 12 5 6 5 3 3 7 6 5 4 4 3 3 3 3 2 3 2 1 3 2 3 5 4 7 5 5 6 7 9 12 7 6 3 2 0 3
12 11 10 10 11 12 12 12 12 11 9 10 12 9 10 11 13 13 2 8 6 5 4 5 10 10 8 5 3 4 1 1 1 3 2 3 4 3 4 4 3 5 9 3 8 5 2 14 6 9 0 2 1 3
10 12 11 10 11 12 13 13 12 11 10 9 11 11 7 9 10 11 8 9 5 3 5 3 6 8 14 13 11 5 4 2 3 1 2 2 6 2 5 6 6 6 9 5 4 7 14 15 14 14 10 8 7 7
9 9 9 8 11 12 11 13 14 13 12 9 9 11 9 7 10 9 6 9 4 5 4 1 1 1 4 7 12 9 2 3 3 3 3 4 4 4 5 8 10 9 6 8 14 17 18 16 12 12 11 7 8 10
9 8 7 7 9 13 13 12 13 13 12 11 9 10 10 8 11 11 11 11 8 3 3 6 1 1 3 4 7 8 9 6 3 3 4 5 4 3 7 6 12 12 10 10 6 4 10 5 5 5 6 6 7 8
11 10 9 8 9 12 13 12 12 14 12 10 11 10 10 9 8 5 1 4 1 4 2 4 3 2 2 2 5 5 7 4 4 3 4 4 2 3 4 5 5 12 17 15 10 2 5 4 5 7 8 9 8 9
11 11 13 12 10 12 12 10 11 11 13 11 10 10 9 8 6 3 2 0 1 0 2 4 2 2 5 2 1 2 3 2 3 3 4 6 5 5 4 9 5 10 14 14 13 8 9 13 7 5 5 6 6 8
10 10 11 10 9 10 13 14 11 10 10 12 10 9 9 7 9 7 9 15 8 3 1 3 4 2 5 3 3 1 2 3 4 3 1 3 2 4 8 15 14 15 9 12 13 11 10 2 4 8 7 6 7 7
9 9 8 9 9 9 11 11 10 10 9 12 9 5 5 2 3 1 3 4 10 3 2 3 3 2 3 1 1 3 2 4 0 3 3 3 5 9 15 15 15 12 9 5 1 7 8 10 10 7 8 9 10 9
9 9 9 8 8 8 10 11 9 7 8 13 5 0 2 1 3 1 1 2 2 3 3 4 2 3 4 3 3 2 3 3 3 2 2 5 8 17 19 16 12 9 8 7 5 3 5 6 7 9 9 9 8 7
11 10 10 9 8 6 6 8 8 2 14 4 4 2 2 1 1 2 2 3 3 4 5 4 4 5 4 3 3 3 2 2 3 2 3 3 5 4 7 8 8 11 10 11 12 6 2 4 6 6 4 6 5 6
12 11 11 10 9 7 6 5 6 9 5 7 8 4 2 0 1 3 3 2 5 5 4 2 1 3 2 1 3 2 2 1 5 1 2 4 5 5 6 4 3 4 2 4 6 8 6 6 8 6 5 5 9 11
13 13 13 12 11 9 8 8 7 14 11 9 3 2 2 2 6 6 7 4 4 3 4 3 3 3 2 2 2 2 3 5 1 3 4 6 5 5 3 2 4 4 4 3 3 4 4 6 7 8 5 9 8 9
15 15 13 12 12 12 10 8 6 18 3 3 4 6 6 6 6 6 6 2 2 2 6 5 3 2 2 3 2 4 2 2 4 4 7 3 4 5 4 3 3 4 4 5 4 2 3 4 4 9 10 8 8 8
16 16 14 13 14 13 13 10 7 17 7 3 4 6 10 5 2 1 1 1 2 3 5 4 2 3 3 3 3 1 2 5 6 5 3 3 6 6 4 2 4 4 4 4 3 4 4 6 5 6 10 10 9 8
16 16 16 15 13 12 11 9 12 10 3 4 5 6 1 2 3 3 4 4 5 5 2 2 2 2 6 3 6 9 3 6 4 3 3 5 6 5 5 4 4 4 4 5 5 6 7 8 8 7 7 8 11 12
15 9 7 8 7 7 8 5 10 6 5 5 6 6 10 9 9 6 5 5 11 6 4 2 6 9 1 3 4 4 6 3 3 3 2 3 7 7 4 5 4 4 5 7 7 9 8 7 7 6 6 6 12 14
17 9 10 10 8 5 7 7 5 4 8 7 6 8 5 9 8 9 4 6 6 5 5 5 1 6 6 6 5 4 7 6 6 7 6 6 8 7 6 6 7 6 7 11 16 15 12 10 6 8 13 13 9 11
20 16 17 14 11 6 4 5 6 4 9 4 5 4 5 4 5 6 6 9 10 2 4 4 6 5 6 6 12 10 6 4 6 7 4 6 8 8 9 13 14 11 10 12 12 13 15 16 16 13 15 12 9 11
25 24 20 18 13 5 4 3 6 4 6 6 5 7 4 5 3 6 7 6 7 3 5 4 7 11 7 10 8 9 10 9 8 8 10 9 10 11 10 9 10 16 12 13 18 19 16 15 21 22 22 20 14 14
20 23 21 19 8 14 3 3 4 4 2 4 2 4 4 2 3 5 5 6 4 4 4 7 11 13 18 15 21 16 11 9 11 10 12 13 9 8 10 14 17 12 6 8 9 13 20 15 20 18 20 20 22 21
13 14 8 12 8 6 5 9 3 1 3 3 3 3 3 3 4 4 4 4 4 6 6 10 14 15 16 19 17 25 25 26 22 19 23 22 13 12 12 15 10 9 9 12 16 12 18 21 20 20 21 21 18 17
12 12 7 9 7 8 6 11 6 6 6 5 2 3 3 4 3 5 4 5 5 7 11 14 19 30 17 26 24 24 25 21 12 13 14 16 21 24 21 20 20 11 10 17 22 20 22 22 17 17 19 14 13 14
13 6 6 7 9 5 5 6 3 5 5 5 5 9 7 4 5 4 5 7 11 10 11 17 13 12 13 15 12 13 22 21 17 21 26 16 13 14 22 21 22 24 25 23 20 20 19 17 17 16 16 13 14 13
5 6 6 7 7 7 6 5 4 6 6 9 13 9 3 4 5 5 5 8 12 13 12 12 10 10 11 13 12 12 26 17 9 13 22 21 20 19 16 20 22 24 22 16 18 19 17 14 14 15 16 15 14 14
10 10 7 7 4 6 6 6 7 12 12 7 7 3 4 4 6 7 7 15 12 11 11 9 9 8 9 11 12 10 14 16 17 9 20 22 20 12 10 11 10 12 21 27 23 17 15 15 16 16 15 16 17 15
8 9 5 4 3 2 3 1 1 3 5 7 4 6 6 7 8 6 8 3 7 8 18 17 14 8 10 10 17 22 24 20 18 16 20 23 24 22 21 13 13 18 17 19 21 19 16 15 15 16 14 14 18 19
6 6 8 6 4 4 7 4 4 6 5 3 4 6 4 6 6 5 4 6 11 15 18 19 20 22 20 22 20 20 24 25 21 20 22 27 31 30 32 32 30 27 22 19 15 14 16 16 15 15 16 16 16 19
7 7 7 11 6 5 9 8 7 6 5 5 5 8 7 6 9 11 12 20 29 17 6 6 14 18 21 22 25 27 24 20 8 13 15 9 5 7 14 20 23 25 26 22 14 12 13 12 13 16 16 15 16 19
9 7 10 8 10 11 10 7 6 7 4 8 8 7 7 9 19 25 20 19 9 9 15 17 19 13 11 11 14 22 24 25 26 16 11 12 10 20 13 13 17 20 20 17 15 11 8 10 11 11 13 15 16 16
4 8 8 12 16 15 15 7 1 2 2 5 5 8 15 14 13 24 25 26 23 19 14 12 15 26 18 14 13 14 15 19 27 35 37 31 26 24 22 15 13 14 16 19 18 18 16 14 13 12 13 13 16 17
6 10 9 12 16 10 2 4 4 6 8 7 11 8 6 4 12 11 25 19 17 11 20 22 13 17 35 31 30 29 33 30 27 28 29 30 29 29 26 19 15 16 17 18 19 19 20 17 15 14 13 15 18 18
3 5 6 6 8 7 4 2 3 7 5 7 9 12 13 14 22 12 13 23 28 27 26 30 31 31 33 32 32 31 27 31 33 32 32 32 31 27 24 25 23 20 19 20 20 20 21 19 17 16 16 18 20 21

GFSWCAN_925_spd_111.txt.gz
Wind_Speed
10 9 10 10 9 8 7 8 9 9 9 11 12 15 14 12 12 9 4 11 5 1 5 1 2 2 2 1 3 3 3 3 2 1 2 2 2 3 1 3 6 7 6 4 4 4 9 7 4 7 5 2 2 3
12 10 11 8 7 7 6 8 8 8 8 10 10 11 13 13 12 8 2 7 8 3 4 4 6 7 6 4 3 1 4 3 4 2 1 0 2 1 3 4 2 3 7 5 10 8 5 7 5 8 3 4 3 3
14 11 10 9 6 5 5 6 9 7 6 7 9 10 11 12 11 11 6 8 4 2 4 3 2 2 3 7 6 2 3 1 2 3 3 2 4 3 3 6 3 4 6 5 1 7 15 14 13 7 5 7 6 6
14 11 10 8 6 5 5 5 7 9 8 7 6 7 9 11 11 11 6 6 4 1 1 4 2 0 1 2 6 5 0 1 3 2 2 3 3 4 4 5 5 6 3 5 8 19 10 13 10 8 9 9 8 7
15 12 10 7 6 4 6 6 7 7 7 8 9 6 6 8 10 10 3 4 3 1 2 4 6 4 6 2 2 4 3 2 1 1 1 3 3 2 3 2 10 9 10 7 10 16 7 9 5 0 1 3 5 4
14 12 9 7 7 5 5 9 9 8 7 6 7 9 7 8 9 2 1 6 4 1 2 3 1 2 5 3 2 3 3 2 3 3 3 3 3 2 3 4 7 6 10 16 14 7 7 9 6 4 4 5 3 3
11 8 7 6 6 6 5 7 9 10 8 7 8 8 7 8 7 2 2 0 4 4 2 4 4 1 2 1 2 2 2 1 2 2 3 3 2 3 3 4 3 4 6 8 9 6 8 5 7 7 7 6 3 3
8 8 7 4 2 4 1 3 6 7 9 7 7 8 7 7 6 2 2 3 6 3 2 1 4 3 2 1 1 1 1 1 1 2 2 2 2 2 6 11 8 8 9 11 11 8 10 4 3 4 2 1 4 5
7 6 5 3 2 2 1 3 7 7 5 6 4 6 4 1 1 2 2 1 5 2 2 2 2 3 2 1 1 1 1 2 2 2 3 2 3 6 8 9 11 11 7 12 13 8 6 5 7 6 5 6 6 6
5 5 4 3 2 1 1 2 5 7 5 2 6 3 1 1 3 2 1 1 3 0 1 3 0 2 3 1 2 1 1 2 2 2 0 2 5 7 14 13 13 13 9 8 8 6 5 6 5 5 6 6 5 6
5 4 3 2 1 1 2 2 3 5 5 2 2 2 3 2 1 2 1 1 1 2 3 3 3 2 1 2 3 1 2 1 2 1 2 3 4 4 6 8 8 7 6 7 6 6 7 6 4 3 5 4 5 7
6 5 4 4 2 1 2 2 6 2 1 1 1 2 2 2 2 1 2 1 3 3 2 3 4 4 1 1 2 1 1 1 5 0 1 3 4 7 7 10 8 6 7 8 6 7 7 7 6 4 5 5 5 6
6 6 5 4 3 3 3 3 6 5 5 1 2 2 1 2 2 4 4 3 2 2 2 1 1 2 1 1 0 2 1 4 1 1 4 5 5 7 7 6 8 6 5 5 6 6 8 7 9 5 5 7 7 7
7 7 6 5 5 5 4 4 5 7 2 2 1 4 4 4 5 5 4 4 3 3 3 2 1 1 1 2 2 2 3 2 3 3 6 3 7 7 7 6 5 9 7 3 5 6 6 5 8 8 7 8 6 6
7 7 6 8 8 6 4 4 8 6 2 1 2 5 7 4 1 1 1 3 1 3 3 2 2 1 1 1 3 0 1 4 6 5 3 4 5 3 6 6 7 7 7 7 4 3 4 8 7 9 8 7 9 10
7 6 10 11 10 8 7 8 8 6 1 2 5 4 3 3 2 0 1 2 2 4 2 2 2 1 4 3 4 7 5 7 5 4 4 3 3 5 6 6 7 7 7 7 11 13 12 11 10 9 9 10 12 12
7 4 6 4 3 6 13 9 6 4 5 5 5 4 3 2 4 3 4 4 10 3 3 3 5 11 0 3 4 5 6 6 5 5 2 1 4 9 8 7 7 10 9 13 15 17 19 19 13 8 6 19 20 19
9 8 7 9 5 7 5 7 4 4 7 7 5 3 3 4 3 3 4 3 4 3 3 5 3 5 6 5 6 4 5 5 4 7 7 7 7 8 12 9 15 17 16 17 19 22 19 17 8 9 17 26 21 22
15 12 13 10 11 6 5 4 4 4 8 3 2 2 3 3 3 4 4 8 9 4 4 3 6 6 9 5 8 6 6 5 10 10 7 8 16 14 17 21 22 19 17 15 18 14 17 22 21 20 21 20 14 18
15 15 16 15 14 6 4 3 6 4 4 4 0 2 3 3 4 3 6 5 5 3 6 7 11 10 4 5 5 9 12 9 3 9 12 11 16 19 15 17 14 19 18 19 20 19 17 16 21 25 24 22 18 18
15 19 17 16 8 12 3 3 5 3 3 4 2 2 4 1 1 3 4 3 5 6 9 10 12 12 18 23 27 23 13 9 10 11 14 12 17 21 19 20 20 19 10 12 10 11 17 14 23 23 21 22 23 24
9 8 8 13 9 6 4 10 3 4 4 3 1 3 4 2 3 4 3 5 6 10 9 12 14 14 14 15 16 28 29 30 28 22 22 21 11 12 12 17 11 9 10 14 18 13 20 23 23 24 25 25 25 23
11 8 6 9 6 6 5 11 5 5 5 4 4 4 4 4 4 2 4 5 6 8 14 14 22 28 17 28 32 34 36 27 12 13 19 21 22 22 22 21 20 11 11 21 22 21 21 26 25 24 24 24 23 20
12 6 5 4 7 4 4 6 3 3 1 3 4 5 4 5 1 3 5 8 12 7 7 11 6 10 14 18 13 15 28 26 19 20 24 17 8 14 24 21 20 21 26 28 23 24 24 23 25 22 21 20 18 15
5 6 4 7 4 5 6 4 4 3 6 6 6 5 4 2 3 3 4 7 11 12 12 12 10 11 11 13 12 16 31 21 6 9 24 19 21 19 17 21 22 27 26 20 20 19 21 21 21 21 20 18 15 13
8 8 7 7 4 6 6 5 7 9 5 4 7 4 1 4 4 8 5 10 10 10 8 9 10 10 10 11 12 12 20 20 15 5 27 26 21 12 10 9 10 20 20 25 24 17 17 19 18 18 17 19 18 16
7 8 5 3 3 3 1 2 0 3 5 6 4 3 4 5 7 9 9 10 7 15 24 22 16 9 12 12 20 24 30 23 20 20 31 27 26 26 24 14 14 34 30 29 30 25 21 19 18 18 16 15 16 16
5 6 9 6 4 3 5 3 6 8 9 5 3 5 8 10 16 12 9 20 19 23 22 22 22 22 21 25 27 27 27 26 26 27 31 33 34 36 37 35 40 40 37 34 32 27 26 24 21 19 17 15 13 15
5 4 4 6 5 3 7 9 10 9 12 7 10 16 19 13 13 12 23 28 30 25 14 13 21 23 24 31 32 32 29 21 4 14 18 12 11 16 25 31 31 26 25 27 29 24 24 21 22 19 17 14 12 11
13 4 4 7 8 9 13 8 9 15 9 10 12 14 14 15 28 34 29 26 16 10 21 20 23 21 15 15 13 27 31 26 23 16 12 15 14 23 25 30 30 29 27 25 25 21 13 11 11 10 8 8 10 9
3 7 6 11 13 15 18 17 12 12 13 13 13 13 17 18 22 35 32 32 27 25 21 15 21 27 22 17 15 15 16 33 26 33 37 37 30 30 33 35 35 34 29 23 20 18 17 16 16 14 12 11 12 11
5 10 9 9 14 17 4 1 2 4 9 11 16 16 16 14 20 14 40 30 26 15 29 31 17 16 43 37 34 33 37 34 30 31 32 34 34 37 38 37 36 32 28 24 21 20 21 21 17 16 15 15 14 15
1 0 7 7 7 7 8 3 4 6 11 15 18 17 18 18 25 18 32 31 33 31 31 35 38 38 38 36 33 33 32 33 36 34 36 39 37 34 34 33 32 29 25 24 24 22 22 21 18 18 18 16 16 16